Wetbulb
49.18 49.56 49.95 50.29 50.58 50.72 48.95 44.33 34.29 45.74 47.18 34.77 34.47 28.97 33.75 38.01 36.44 39.42 36.71 38.01 36.34 34.81 35.41 34.88 36.08 36.26 40.20 44.48 44.05 40.18 42.91 38.75 33.58 37.43 44.58 45.94 42.99 41.84 40.86 34.29 34.94 36.87 31.35 33.17
48.65 48.91 49.33 49.77 50.08 50.65 46.62 39.84 37.61 45.54 43.62 29.66 30.33 33.13 32.99 35.55 35.35 35.64 35.54 35.42 37.28 38.58 35.64 31.92 38.12 38.64 45.38 46.20 43.39 40.89 41.72 36.80 31.23 33.76 40.62 43.40 40.40 42.27 42.87 42.46 39.77 35.38 30.36 33.52
48.76 48.86 49.11 49.37 49.68 50.33 46.99 35.69 30.97 38.18 39.81 37.07 33.42 31.43 30.92 31.61 37.28 35.62 36.66 36.08 37.63 34.97 33.40 37.10 36.88 38.33 44.88 46.57 45.96 45.66 44.86 38.60 36.09 31.42 35.11 40.49 38.02 41.53 42.94 41.38 33.33 35.40 35.39 39.89
48.90 49.06 49.13 49.23 49.44 49.71 47.01 35.00 32.64 36.14 31.86 32.75 34.23 33.95 32.96 30.68 31.50 36.93 37.67 33.84 34.85 34.44 31.27 33.52 35.65 41.40 42.35 45.65 45.55 45.13 42.71 35.60 38.04 39.10 41.31 41.59 40.45 40.48 42.02 40.07 39.55 36.47 39.38 40.04
47.92 48.34 48.57 48.82 48.98 49.23 44.25 31.12 33.95 36.82 35.24 36.18 33.74 33.96 31.04 31.38 32.91 34.67 32.93 32.34 35.57 36.11 32.47 33.62 32.89 40.21 40.63 41.53 43.11 41.73 42.58 35.17 38.04 35.91 40.66 41.05 38.63 41.26 42.62 42.50 40.69 41.35 41.33 40.66
47.16 47.26 47.84 47.96 48.88 48.80 43.01 42.05 40.58 38.39 35.56 34.80 32.60 30.95 32.53 32.61 35.60 36.10 37.04 36.08 33.99 32.75 35.33 39.11 43.60 43.80 44.43 44.27 41.17 39.56 39.47 37.37 34.49 30.80 39.04 38.86 33.32 38.49 41.00 41.58 42.70 41.55 37.35 42.34
47.08 47.03 47.15 47.34 48.22 48.34 45.29 41.71 41.55 36.47 31.86 32.95 33.07 34.39 34.59 33.87 35.35 33.56 37.70 37.84 35.34 38.18 45.93 45.55 45.59 44.82 44.02 43.74 43.14 43.75 39.59 37.70 35.18 29.14 33.80 27.61 37.57 45.05 45.01 42.56 43.84 44.53 42.92 43.39
47.31 46.82 46.84 46.92 47.54 48.10 45.50 42.37 41.54 37.76 31.99 33.61 34.67 34.80 34.25 35.38 36.27 36.12 35.82 38.50 40.43 40.90 40.65 37.66 34.23 33.62 35.18 37.30 41.46 42.03 42.63 39.73 31.44 29.92 30.40 35.12 38.79 42.44 42.77 41.61 40.61 45.27 43.03 44.10
46.92 46.85 46.72 46.74 47.19 47.82 45.99 42.25 44.38 41.55 35.04 32.68 36.71 34.64 35.71 32.61 32.63 33.28 35.62 40.78 41.81 39.60 36.95 33.65 29.34 27.33 32.37 33.07 36.50 42.37 42.26 40.83 35.13 29.54 28.10 24.81 36.10 44.15 47.12 46.16 35.60 45.61 45.55 44.42
46.57 46.88 46.73 46.83 46.90 47.45 45.71 42.15 44.36 40.18 34.79 37.17 38.13 34.63 34.21 37.34 35.34 32.33 34.59 36.64 36.61 39.53 30.73 27.05 26.47 27.52 36.32 30.21 30.65 33.30 31.73 32.47 29.49 27.87 27.42 32.76 41.84 45.42 47.30 35.84 35.93 46.06 47.08 45.79
46.46 46.96 46.57 46.56 46.66 47.17 45.65 43.02 44.28 40.26 34.62 39.60 41.08 41.44 37.67 37.93 37.80 31.58 34.69 35.08 34.84 33.90 28.34 28.66 27.68 25.93 31.90 32.75 36.50 35.18 34.50 32.04 30.43 29.93 26.84 27.31 44.92 44.99 39.73 42.17 45.24 46.53 46.63 47.33
46.44 46.74 46.71 46.49 46.95 47.16 46.69 40.96 44.57 44.91 40.22 40.29 44.03 43.32 45.05 44.00 43.27 39.23 37.48 35.80 35.84 36.38 32.60 33.07 31.84 26.50 26.78 31.12 28.67 39.73 32.16 35.66 33.25 34.46 33.61 42.47 46.03 46.47 47.51 47.48 45.89 46.76 47.18 48.31
46.25 46.69 46.87 46.88 47.04 47.37 46.20 42.31 43.31 42.91 38.36 39.99 39.81 40.42 46.20 48.26 47.42 46.10 36.50 36.90 41.56 39.80 41.05 37.29 35.95 29.31 32.27 25.13 29.03 32.60 38.56 42.52 37.14 37.71 41.15 43.85 46.01 47.65 48.64 48.55 47.08 48.68 48.47 48.12
46.46 47.01 46.92 47.04 47.09 47.18 45.79 42.79 43.62 42.74 38.32 33.02 36.71 46.36 44.91 49.13 47.86 46.93 44.96 43.86 44.68 43.40 41.09 36.02 34.26 33.75 38.65 30.32 34.28 33.05 36.02 40.83 39.05 38.61 41.92 44.96 45.47 47.61 48.31 49.24 49.02 47.94 48.96 48.30
46.59 46.83 47.03 47.08 47.09 46.99 45.04 43.70 45.32 45.59 39.35 34.27 37.18 42.77 44.78 46.53 46.79 45.93 46.02 44.56 42.20 39.30 35.58 33.25 32.86 37.29 37.74 37.25 36.43 33.80 40.73 39.97 36.56 35.49 44.11 43.37 44.40 46.69 49.23 47.52 46.52 48.29 48.43 48.43
46.41 46.50 46.87 46.50 46.41 46.40 44.27 39.25 44.57 47.69 47.01 36.54 31.25 41.48 41.24 43.89 44.87 44.69 44.73 44.40 42.51 42.62 38.00 34.28 38.00 42.17 40.00 33.89 30.29 37.63 41.18 41.83 43.51 40.23 43.43 45.15 46.39 46.85 47.41 45.70 47.22 48.51 47.29 47.57
46.18 46.50 46.62 46.23 45.97 45.33 40.46 37.36 43.16 47.19 46.22 37.78 33.95 33.55 41.81 44.02 43.93 42.11 42.48 43.31 40.75 39.89 39.03 35.76 37.59 39.87 40.78 33.64 31.07 38.41 39.88 43.70 44.20 45.09 43.82 43.00 44.77 45.07 47.40 47.40 47.17 46.85 46.22 44.70
46.41 46.39 46.27 46.37 46.76 46.12 43.01 45.07 46.67 46.52 42.10 39.19 29.84 33.83 35.41 41.91 37.03 36.45 40.73 37.13 37.50 37.58 36.95 36.99 37.82 39.45 38.50 33.31 37.54 37.85 37.87 40.22 41.03 41.14 44.85 43.60 46.31 45.61 45.27 45.77 45.36 42.93 40.21 37.18
46.12 45.73 46.39 44.95 43.37 40.28 41.50 46.92 46.94 46.41 40.31 29.58 28.75 26.57 31.15 40.33 36.69 36.03 36.27 36.49 28.25 36.01 29.69 33.80 37.50 35.61 30.97 32.60 33.86 35.72 36.66 35.95 36.31 40.65 43.14 43.93 43.38 42.63 42.36 43.13 41.50 36.93 32.42 31.01
45.70 43.99 39.59 35.94 40.84 45.36 45.37 42.33 37.99 37.26 36.09 35.71 28.63 33.47 31.84 37.35 34.65 33.76 30.47 30.14 27.07 26.71 30.80 37.04 33.05 29.85 32.82 32.67 34.01 34.15 35.26 36.03 36.74 37.05 36.54 37.51 37.99 36.41 35.32 34.02 33.01 31.62 29.24 28.03
39.27 38.09 36.09 40.58 44.40 41.21 36.33 30.27 29.62 31.32 28.60 32.83 32.69 34.48 32.78 35.89 32.36 32.75 33.77 30.85 31.18 22.38 28.88 30.33 30.78 25.77 28.67 30.98 31.46 31.94 33.03 35.03 34.43 34.80 33.80 32.53 33.94 32.46 29.67 27.97 27.50 27.19 26.38 25.11
39.26 38.81 40.74 39.37 36.48 31.58 27.10 24.08 28.17 28.57 29.13 32.52 30.68 32.90 33.22 30.50 36.86 33.35 32.91 31.06 30.63 24.18 32.05 26.07 22.84 24.97 28.16 28.65 28.76 28.91 30.66 31.33 30.69 31.04 30.28 29.92 29.14 28.49 26.93 26.06 25.25 25.03 25.05 24.32
41.34 37.50 32.13 31.61 27.19 20.10 19.14 19.41 24.86 27.17 29.58 30.54 32.70 28.11 28.11 32.05 35.22 30.96 32.22 30.00 29.56 33.68 26.54 20.70 21.89 25.53 27.36 27.50 27.44 27.25 28.27 27.84 26.83 26.22 26.37 26.03 25.60 25.99 25.02 23.53 23.86 23.93 23.15 23.13
31.26 26.31 19.12 19.56 17.53 20.66 21.72 23.55 24.84 29.08 28.64 28.28 30.34 30.07 32.02 31.69 30.82 31.23 30.00 31.13 28.83 22.68 16.43 16.37 22.95 25.70 27.53 27.49 27.78 26.13 24.86 24.60 24.12 23.50 23.40 22.93 22.68 22.32 22.83 22.86 23.23 22.15 21.15 21.64
24.36 23.57 16.51 17.74 22.38 21.90 25.79 27.15 26.64 28.98 29.12 28.89 32.17 32.57 33.89 31.48 30.58 27.51 26.40 21.51 15.60 17.74 15.75 21.12 24.27 26.46 26.40 25.75 25.75 24.64 24.15 23.51 23.18 23.40 22.89 22.65 22.62 22.17 21.94 23.05 23.18 22.68 21.65 20.93
20.95 19.94 15.50 18.86 13.69 11.94 16.59 24.07 24.76 28.04 27.09 29.01 30.53 30.94 28.33 25.43 21.48 18.61 17.32 16.70 13.51 16.30 19.48 21.86 25.50 24.16 24.16 24.37 24.90 24.59 24.37 23.76 23.01 22.98 22.93 22.73 22.00 21.26 21.19 21.79 21.60 21.35 21.07 19.51
21.36 17.15 14.59 11.55 7.27 9.74 16.07 23.66 24.12 27.92 26.46 25.49 27.33 19.36 19.53 26.03 19.69 16.20 19.21 12.98 15.80 19.13 20.44 22.14 22.72 23.26 23.73 24.26 24.39 24.18 23.94 23.40 23.33 23.09 23.39 22.96 23.63 22.87 21.37 19.21 20.58 21.19 20.68 19.97
MSLP
1008.44 1008.69 1009.04 1009.50 1010.05 1010.75 1011.69 1011.89 1011.95 1012.18 1013.10 1014.46 1012.92 1012.20 1012.37 1011.93 1010.88 1010.63 1010.62 1008.88 1008.49 1008.17 1008.38 1007.77 1007.29 1005.24 1003.55 1002.09 1001.79 1002.19 1002.52 1003.21 1003.16 1002.29 1002.07 1002.26 1002.71 1002.76 1003.47 1005.11 1006.91 1007.55 1007.71 1004.90
1006.92 1007.26 1007.70 1008.18 1008.78 1009.51 1010.31 1010.73 1011.47 1011.70 1011.47 1011.12 1011.05 1011.78 1011.72 1011.62 1011.19 1010.49 1010.05 1008.81 1008.32 1008.30 1008.19 1008.43 1006.66 1005.04 1002.93 1001.79 1001.75 1001.59 1002.13 1002.48 1003.18 1002.71 1002.51 1002.13 1002.42 1002.35 1002.66 1003.68 1005.11 1006.03 1006.44 1004.41
1005.23 1005.63 1006.13 1006.69 1007.35 1008.14 1009.25 1010.08 1010.63 1010.62 1010.39 1009.20 1010.00 1010.90 1010.78 1010.65 1010.62 1010.70 1009.94 1009.23 1008.78 1009.00 1008.52 1007.71 1006.35 1005.06 1003.87 1003.03 1001.90 1001.07 1000.86 1001.98 1001.97 1001.58 1001.97 1002.86 1002.44 1001.74 1002.06 1002.82 1003.96 1004.64 1004.41 1003.76
1003.57 1003.99 1004.52 1005.11 1005.82 1006.69 1007.88 1008.49 1008.12 1007.36 1007.46 1008.20 1009.11 1009.79 1009.44 1009.76 1009.72 1009.74 1009.58 1009.28 1009.09 1008.74 1008.24 1007.27 1005.99 1005.26 1004.39 1003.20 1002.45 1001.81 1001.17 1001.99 1002.31 1002.54 1002.79 1002.81 1002.67 1002.09 1001.95 1002.02 1002.51 1002.93 1002.96 1002.64
1002.21 1002.51 1002.92 1003.57 1004.31 1005.33 1006.09 1006.57 1006.76 1006.67 1006.72 1007.70 1008.83 1008.48 1007.49 1008.47 1009.20 1009.09 1008.50 1008.58 1007.80 1007.47 1007.22 1007.20 1006.74 1006.09 1005.37 1004.95 1003.52 1003.12 1002.37 1002.34 1002.71 1003.22 1003.31 1003.49 1003.18 1002.04 1001.44 1001.63 1001.79 1001.51 1001.46 1001.34
1000.93 1001.33 1001.77 1002.24 1002.84 1004.00 1003.69 1004.83 1005.38 1005.24 1005.54 1006.56 1007.08 1004.41 1007.31 1008.18 1008.46 1007.96 1007.23 1007.46 1007.56 1007.86 1007.59 1007.12 1006.55 1006.24 1005.78 1005.48 1005.54 1004.69 1003.69 1003.38 1003.53 1003.86 1003.91 1003.88 1002.91 1001.67 1001.39 1001.31 1001.19 1001.21 1000.45 1000.09
999.23 999.80 1000.39 1001.00 1001.51 1002.23 1002.80 1003.39 1004.07 1004.80 1004.14 1004.54 1003.53 1005.55 1006.86 1007.34 1007.48 1007.28 1006.35 1006.79 1007.12 1006.71 1006.42 1006.32 1006.25 1006.37 1005.93 1005.55 1005.43 1004.97 1004.65 1004.15 1004.28 1004.64 1004.48 1003.97 1002.10 1000.80 1000.64 1000.79 1000.26 1000.09 999.56 999.25
997.27 997.96 998.77 999.52 1000.26 1001.07 1001.89 1002.64 1002.99 1003.34 1003.12 1003.27 1004.28 1004.51 1005.22 1006.63 1006.85 1006.48 1006.58 1006.22 1006.44 1006.32 1006.51 1006.80 1007.01 1006.74 1006.07 1005.50 1004.68 1004.42 1004.81 1004.88 1005.05 1004.96 1004.54 1003.18 1001.79 1000.39 1000.00 1000.07 999.66 998.70 999.06 998.71
995.24 995.95 996.93 997.93 998.96 999.98 1001.28 1001.69 1002.35 1002.70 1002.93 1001.88 1002.86 1003.78 1004.23 1005.12 1005.70 1006.37 1006.01 1005.84 1005.85 1006.20 1006.58 1007.04 1007.41 1007.47 1006.21 1004.88 1004.01 1003.67 1004.34 1004.84 1004.60 1005.00 1004.32 1002.72 1000.78 999.89 999.07 999.25 999.23 998.73 998.56 998.08
993.06 993.95 995.02 996.30 997.68 998.93 1000.36 1001.31 1002.16 1002.59 1002.54 1001.23 1001.47 1001.47 1002.39 1003.81 1004.71 1004.96 1005.29 1005.10 1005.63 1005.92 1006.65 1007.23 1007.60 1007.47 1006.38 1005.48 1004.89 1004.52 1004.84 1004.96 1004.73 1004.68 1003.72 1002.30 1000.45 999.27 998.59 999.37 999.84 998.40 998.67 997.93
990.97 992.21 993.54 994.96 996.36 997.85 999.47 1000.43 1001.30 1001.86 1002.67 1000.83 999.92 1000.43 1000.94 1002.02 1003.06 1003.50 1004.02 1005.01 1004.67 1005.58 1006.36 1006.87 1006.96 1006.70 1005.82 1005.34 1004.43 1003.92 1004.16 1004.50 1004.29 1004.05 1003.32 1002.17 1000.25 999.18 999.54 1000.17 999.18 998.48 998.18 997.83
989.19 990.74 992.32 993.81 995.33 996.80 998.72 999.92 1000.94 1001.81 1002.66 1001.23 999.87 999.60 999.89 999.76 1000.44 1002.01 1002.75 1002.99 1003.38 1004.17 1005.04 1005.86 1006.17 1006.52 1005.73 1004.98 1004.37 1003.23 1003.00 1002.50 1002.71 1002.72 1001.77 1000.74 1000.29 1000.15 1000.01 1000.05 999.83 999.28 998.80 998.07
987.51 989.55 991.35 993.05 994.66 996.18 997.69 999.00 1000.56 1001.84 1002.35 1001.60 1000.21 999.70 999.81 999.87 1000.17 1000.68 1002.03 1002.50 1002.78 1003.51 1003.57 1005.14 1006.05 1006.34 1005.86 1005.34 1004.02 1003.17 1001.99 1001.43 1001.57 1001.49 1000.91 1000.23 1000.03 999.52 999.45 999.65 999.88 999.39 999.11 998.46
986.98 989.09 990.97 992.69 994.32 995.92 997.63 998.42 999.62 1000.56 1001.42 1001.43 1000.26 999.74 999.99 1000.18 1000.27 1000.47 1000.99 1001.60 1002.27 1002.94 1003.77 1004.84 1005.46 1005.71 1005.17 1004.71 1003.38 1002.60 1001.72 1001.30 1000.96 1000.80 1000.51 1000.04 999.83 999.56 999.23 999.05 999.25 999.70 999.22 998.80
987.87 989.60 991.29 992.86 994.47 996.11 997.63 998.64 999.23 999.58 1000.39 999.91 999.84 999.98 1000.61 1000.47 1000.41 1000.65 1001.01 1001.50 1002.18 1003.38 1004.33 1004.73 1005.12 1004.84 1004.58 1004.18 1003.51 1002.14 1001.22 1000.88 1001.09 1000.23 999.56 999.20 999.00 998.37 998.63 999.07 998.99 999.63 999.37 998.94
989.34 990.70 992.13 993.59 994.97 996.61 998.12 998.85 999.50 999.12 999.14 999.31 1000.25 1000.58 1000.71 1000.68 1000.94 1001.46 1001.69 1001.79 1002.13 1002.89 1004.07 1004.57 1004.63 1004.40 1004.73 1005.10 1003.78 1002.10 1001.31 1000.35 1000.01 999.79 999.05 998.71 998.09 998.20 998.53 999.08 998.85 999.68 999.86 999.37
991.04 992.11 993.31 994.69 995.90 996.58 997.17 997.23 997.77 999.22 998.99 999.27 1000.68 1001.09 1001.21 1001.03 1002.13 1002.65 1002.85 1002.87 1002.68 1002.99 1003.66 1004.31 1004.56 1004.46 1004.52 1005.35 1005.63 1004.34 1003.09 1001.48 1000.94 1000.07 999.40 999.04 998.66 998.65 998.88 999.44 1000.07 1000.16 1000.52 1000.68
993.10 993.85 994.80 995.87 996.45 997.08 997.30 997.54 997.74 997.78 998.33 999.67 1001.15 1001.52 1001.51 1001.68 1002.41 1002.77 1002.54 1003.02 1003.15 1003.33 1003.83 1004.12 1004.65 1004.91 1004.90 1005.68 1006.01 1005.53 1004.45 1002.89 1001.86 1001.16 1000.26 999.51 999.29 999.77 1000.23 1000.67 1000.95 1001.42 1002.24 1002.80
994.33 995.02 995.69 996.50 996.87 997.24 997.75 997.96 998.24 998.54 999.10 1000.35 1001.31 1001.94 1002.35 1001.94 1002.50 1002.75 1003.19 1003.31 1004.27 1004.13 1004.44 1004.31 1004.60 1005.67 1006.60 1007.42 1007.09 1007.21 1005.86 1004.91 1004.30 1002.54 1001.72 1001.07 1001.03 1001.56 1001.92 1002.04 1002.54 1003.10 1004.60 1004.98
995.33 995.64 996.58 997.48 997.98 998.13 998.19 998.79 999.11 999.32 999.89 1000.69 1001.85 1002.05 1002.43 1002.63 1003.06 1003.77 1004.21 1004.28 1004.55 1004.74 1004.49 1004.38 1005.31 1006.79 1008.14 1008.40 1008.59 1008.27 1007.14 1006.35 1005.39 1004.19 1004.20 1004.18 1004.19 1004.41 1004.64 1004.77 1005.07 1005.56 1006.46 1007.16
996.33 996.82 997.74 998.38 998.08 998.28 998.99 1000.04 1000.65 1001.06 1001.48 1001.79 1002.21 1002.37 1002.82 1003.04 1003.28 1003.78 1004.31 1004.58 1004.80 1004.91 1004.41 1004.84 1005.98 1007.95 1009.00 1009.42 1009.30 1008.96 1008.54 1007.78 1007.39 1007.00 1006.86 1006.68 1006.35 1006.77 1007.09 1007.32 1007.59 1008.00 1008.58 1009.30
996.58 997.03 998.12 998.44 998.94 999.58 1000.48 1001.72 1001.75 1002.11 1003.11 1003.03 1002.85 1002.97 1003.25 1003.69 1003.47 1003.80 1004.32 1004.50 1004.83 1004.69 1004.38 1005.36 1007.74 1009.98 1010.03 1010.08 1010.11 1009.67 1009.06 1009.30 1008.78 1008.30 1008.20 1008.21 1008.42 1008.85 1009.24 1009.61 1009.91 1010.23 1010.58 1011.08
997.16 998.03 999.59 1000.42 1001.73 1002.74 1003.56 1004.10 1004.12 1004.24 1004.55 1004.53 1003.95 1003.85 1003.96 1004.11 1004.11 1004.45 1004.43 1004.47 1004.63 1004.63 1006.18 1008.52 1010.55 1011.11 1011.27 1011.42 1011.52 1011.53 1011.35 1010.91 1010.41 1010.05 1010.05 1010.01 1010.30 1010.57 1010.82 1011.25 1011.75 1011.97 1012.23 1012.89
999.66 1001.06 1003.18 1004.22 1005.61 1006.29 1006.61 1006.50 1006.27 1006.15 1005.84 1005.40 1004.89 1004.59 1004.63 1004.79 1004.90 1005.11 1005.20 1005.43 1005.81 1007.07 1009.02 1011.06 1011.74 1011.80 1012.04 1012.43 1012.66 1012.58 1012.41 1012.07 1011.79 1011.69 1011.90 1011.88 1011.95 1012.36 1012.65 1012.98 1013.39 1013.52 1013.88 1014.62
1003.20 1004.56 1007.07 1008.40 1008.89 1008.68 1008.28 1007.81 1007.25 1007.07 1006.65 1006.00 1005.25 1005.07 1004.92 1005.53 1005.86 1006.68 1006.95 1007.87 1009.63 1010.94 1012.24 1012.90 1013.12 1013.14 1013.20 1013.31 1013.37 1013.28 1013.09 1012.92 1013.01 1013.34 1013.42 1013.75 1013.67 1013.91 1014.45 1015.00 1015.27 1015.44 1015.76 1016.36
1006.65 1008.82 1009.95 1010.38 1010.47 1010.49 1009.75 1008.97 1008.28 1007.85 1007.28 1006.72 1006.33 1006.13 1006.33 1007.55 1008.42 1009.20 1010.46 1011.33 1012.93 1014.06 1014.60 1014.76 1014.43 1014.47 1014.67 1014.80 1014.81 1014.77 1014.75 1014.75 1014.82 1014.91 1014.99 1015.07 1015.14 1015.57 1016.22 1016.69 1017.01 1017.37 1017.67 1018.12
1009.35 1011.56 1011.67 1011.91 1012.00 1011.95 1011.21 1010.30 1009.58 1008.82 1008.22 1008.07 1008.05 1008.71 1009.73 1009.93 1011.06 1012.65 1013.57 1014.83 1015.64 1016.01 1016.27 1016.22 1016.10 1016.02 1016.26 1016.29 1016.33 1016.26 1016.06 1015.93 1016.64 1016.06 1016.24 1016.47 1016.97 1017.36 1017.62 1018.02 1018.94 1019.17 1019.53 1019.80
Wind_Speed
26 25 24 24 23 21 15 7 7 10 15 11 7 18 12 12 15 12 15 9 11 10 7 7 10 11 9 8 15 18 13 6 7 9 5 5 7 11 10 6 5 5 3 7
28 27 26 26 25 24 7 6 4 8 13 16 17 12 21 22 18 12 6 8 10 8 4 1 9 14 12 16 8 13 9 6 3 4 9 7 9 9 9 7 5 9 8 7
29 28 28 27 26 27 12 6 6 5 12 5 20 16 19 20 19 25 21 14 12 8 7 9 9 8 8 15 6 9 15 6 17 14 7 2 5 9 14 10 6 6 7 5
26 27 27 28 28 29 15 5 7 7 11 19 14 21 11 23 17 17 10 14 20 14 6 6 6 5 5 12 9 4 7 6 8 9 11 9 14 15 8 11 8 10 11 11
24 25 26 27 28 30 14 7 6 4 3 16 24 20 19 18 21 16 18 18 7 19 19 11 12 5 4 2 13 7 4 1 6 9 13 9 18 18 11 10 7 9 8 11
25 25 26 25 27 27 9 5 3 6 11 14 19 31 23 18 14 18 28 15 19 18 15 7 5 4 3 3 5 6 3 1 5 6 13 6 11 17 16 10 8 6 7 10
29 28 27 27 27 28 8 3 5 5 7 18 21 18 22 25 22 20 13 20 11 8 3 6 1 5 5 5 9 5 9 4 2 4 5 9 7 13 17 18 19 11 6 5
30 30 30 29 29 29 12 4 5 5 10 16 15 19 22 20 22 20 23 18 9 7 5 3 4 5 3 9 8 8 7 7 4 6 8 4 8 10 15 12 9 6 8 9
29 32 32 32 31 30 15 5 6 2 7 14 21 18 19 15 18 19 19 14 6 4 5 4 7 4 5 3 6 4 6 6 7 2 7 9 4 20 10 4 7 6 6 7
30 29 32 32 32 31 14 5 12 3 2 4 21 20 17 10 11 5 6 12 5 8 3 4 5 5 3 3 7 4 2 4 4 2 2 6 8 7 7 10 9 8 5 8
30 29 30 31 31 32 19 4 12 7 2 5 21 10 13 9 9 5 4 2 2 2 6 7 5 4 6 4 4 7 11 7 4 2 2 4 5 6 6 5 6 5 5 6
31 30 30 30 30 31 25 4 10 9 3 5 2 5 11 22 15 9 6 6 6 6 4 1 3 1 1 6 7 2 4 8 7 10 8 4 2 4 5 2 3 6 5 6
31 30 30 30 29 31 21 6 10 7 9 5 2 6 4 5 5 6 6 2 5 1 4 5 2 3 5 3 7 3 4 4 3 3 4 5 2 2 1 2 5 9 7 6
31 30 30 30 30 31 18 10 8 7 5 4 3 3 6 2 4 4 5 5 4 5 3 3 4 4 2 5 5 6 7 4 5 3 1 0 0 5 5 4 5 10 7 5
29 29 30 28 29 30 12 4 7 6 5 4 5 5 2 4 6 6 5 5 6 3 2 3 3 2 3 4 2 4 4 6 6 7 8 7 7 10 8 6 5 2 6 5
24 26 29 31 30 24 11 5 4 6 6 3 4 1 3 5 7 5 3 1 2 4 5 3 2 3 3 1 4 5 4 1 5 4 3 8 6 7 7 7 3 1 2 6
30 31 32 31 25 4 2 4 8 11 7 4 3 3 3 7 3 1 2 1 1 4 4 3 3 2 5 4 7 13 14 8 8 7 5 3 2 4 6 8 4 5 7 9
28 27 28 26 14 8 3 5 12 3 6 3 4 2 4 4 3 2 1 2 3 3 3 2 3 2 1 2 8 14 12 10 11 16 10 5 5 7 6 4 5 12 10 10
20 18 17 7 3 3 3 9 10 3 4 4 3 4 4 2 2 2 3 3 2 1 3 2 4 3 2 5 9 14 13 10 12 11 11 12 12 9 8 8 10 13 10 12
11 7 4 4 3 4 1 6 4 5 4 4 3 0 3 3 1 1 3 2 2 2 5 4 3 4 5 8 9 12 13 11 13 6 8 9 7 9 10 12 11 11 11 12
4 3 4 2 5 2 3 3 4 1 4 3 1 3 4 3 4 3 1 1 1 2 4 6 4 4 4 9 8 11 13 12 9 8 8 9 9 8 9 12 13 12 13 13
4 6 3 2 5 4 7 2 3 5 3 4 3 2 3 1 1 2 1 3 3 4 1 4 4 4 9 10 11 13 12 10 10 11 12 13 13 12 12 13 14 14 15 14
3 5 5 5 5 12 6 5 4 4 5 5 4 3 2 2 4 2 1 0 2 2 5 4 4 6 6 7 7 8 9 10 13 15 15 16 16 15 15 15 14 15 16 15
6 6 9 5 6 5 4 3 2 3 3 5 2 2 2 1 3 0 2 1 4 5 5 3 4 7 7 6 6 7 10 12 14 15 15 17 17 17 16 15 13 16 17 16
7 7 7 6 4 4 4 4 3 3 4 4 2 2 1 2 3 4 4 6 5 5 3 3 5 7 8 8 9 10 11 11 13 12 14 15 16 17 17 16 15 16 17 17
6 9 5 4 4 5 5 6 4 4 6 2 1 2 3 5 3 6 6 4 4 3 3 4 6 10 10 10 9 10 10 11 13 13 15 15 17 17 17 17 16 16 16 16
7 4 3 2 2 2 3 4 6 5 3 3 3 6 5 4 4 4 5 3 2 3 4 5 8 8 8 8 9 10 12 14 12 14 15 16 15 15 16 18 14 15 16 15
Wind_Direction
251 245 240 234 227 216 211 215 214 181 146 198 204 226 214 241 259 263 252 291 252 253 309 303 271 259 234 293 201 200 196 191 219 228 272 267 287 228 171 142 178 175 221 271
246 242 238 233 222 205 193 210 156 194 163 212 214 209 221 242 243 244 253 255 215 250 261 333 233 285 295 271 207 192 177 210 156 241 259 271 236 234 192 153 128 196 172 261
242 237 232 227 219 210 198 136 172 178 202 231 205 207 216 219 220 245 256 272 295 299 303 267 269 293 312 327 304 216 167 167 207 215 199 229 305 228 198 181 160 182 201 226
241 235 229 223 218 207 201 157 218 197 194 202 200 199 207 212 216 212 220 250 246 248 261 318 255 346 323 322 341 281 154 175 194 200 213 266 302 281 253 200 186 187 214 200
241 237 230 224 217 213 215 160 188 161 141 179 200 211 210 212 210 229 221 242 261 212 224 214 298 277 68 14 322 327 321 180 139 199 225 237 269 300 258 272 244 219 181 208
237 234 229 221 215 203 196 168 222 171 186 176 187 213 207 206 212 222 238 233 229 252 264 272 253 268 171 145 298 318 291 138 131 229 228 251 267 248 265 274 275 244 203 220
232 227 223 220 214 201 212 142 147 196 186 197 206 190 201 212 213 230 250 223 229 217 225 211 254 263 253 231 253 254 301 286 88 186 118 226 252 224 224 236 256 246 239 227
232 224 218 214 212 209 214 156 185 185 210 204 190 193 186 202 219 235 238 256 249 217 189 204 332 312 254 207 215 222 198 247 229 151 195 306 264 246 207 208 245 261 228 236
231 221 215 209 207 208 206 170 155 182 198 208 191 178 176 186 209 227 242 264 293 187 155 139 179 238 259 276 327 184 206 243 196 142 180 218 197 240 264 140 263 271 239 218
223 218 209 206 203 202 193 160 185 126 297 227 177 188 180 161 184 220 197 229 225 171 189 146 164 214 238 231 175 198 315 259 191 164 207 282 247 244 173 217 239 209 249 238
214 206 202 198 200 196 186 153 179 155 223 263 187 154 172 165 182 172 178 83 252 119 171 184 189 173 208 197 245 194 192 204 195 81 92 248 336 2 136 245 287 276 260 252
200 196 193 191 189 187 174 159 172 177 219 273 226 173 186 191 198 170 188 187 172 176 136 149 116 257 71 163 246 220 229 186 192 177 208 203 135 203 204 53 334 333 358 319
184 185 181 181 178 177 171 134 149 169 189 279 193 167 160 98 128 151 167 282 142 114 162 150 123 240 119 180 228 256 278 177 189 89 219 184 146 316 74 22 343 316 331 336
163 166 166 169 170 171 159 150 161 159 110 262 155 142 110 88 125 139 163 168 82 117 114 132 150 169 181 234 227 194 201 158 193 247 219 77 209 212 254 294 336 299 299 285
144 153 152 154 159 156 147 110 167 162 128 199 111 101 46 76 59 80 95 146 129 119 99 104 187 263 108 254 296 230 182 187 173 215 221 184 220 201 183 208 241 250 299 304
137 139 139 142 140 141 154 136 239 142 254 80 93 135 68 61 33 28 79 71 95 111 146 161 176 208 99 6 258 269 278 237 177 235 307 214 218 190 181 217 182 97 2 10
120 127 134 138 139 116 159 184 135 182 226 78 78 64 117 117 66 297 184 212 118 129 167 134 152 227 146 115 292 353 353 340 1 347 313 38 170 185 104 105 107 105 69 48
107 124 129 134 116 120 75 92 130 118 73 72 108 101 73 126 154 174 182 81 28 13 134 72 125 5 47 133 333 335 352 352 6 348 335 249 111 79 89 124 110 73 56 52
67 65 112 96 27 46 64 152 142 188 119 109 80 119 134 333 44 67 27 70 72 335 123 150 98 140 73 2 354 322 355 15 321 308 8 32 78 74 44 64 68 88 76 70
31 42 47 63 42 315 138 29 31 9 1 48 92 75 87 69 84 69 81 34 176 161 225 113 116 97 101 24 355 325 345 357 357 19 10 358 31 42 48 59 62 79 85 88
24 50 52 201 273 87 54 81 94 202 40 24 16 92 129 353 132 138 155 149 129 149 222 146 146 90 15 2 350 351 347 353 20 52 55 44 57 72 72 67 67 75 81 85
157 122 118 42 33 41 72 30 357 48 59 11 37 17 96 0 358 108 162 181 148 219 198 85 76 35 4 358 359 10 3 1 34 45 60 63 67 76 81 82 81 81 83 83
39 54 55 37 335 45 46 29 11 46 0 0 351 20 110 54 44 53 219 220 200 96 50 68 43 358 14 14 20 31 35 48 58 60 60 66 69 70 74 80 78 83 80 79
56 44 34 57 13 50 22 9 3 3 339 325 312 54 63 47 61 13 224 76 26 54 57 66 356 13 26 31 34 51 58 60 64 64 65 68 70 67 65 67 73 81 79 79
50 34 44 47 17 357 359 341 338 4 309 327 345 43 84 53 65 23 20 41 56 30 57 10 16 30 43 42 41 47 51 55 62 68 71 73 76 75 73 68 73 76 79 79
62 42 26 336 43 333 353 358 352 358 328 289 282 358 68 53 56 49 14 65 46 44 17 338 40 49 46 50 53 58 67 71 72 73 75 76 73 74 75 70 65 66 72 74
49 32 349 65 104 230 302 330 333 311 296 40 27 45 20 48 55 52 26 43 42 51 34 32 41 61 61 67 71 69 73 74 77 76 72 72 75 78 76 73 68 72 70 72